Printer-friendly version

IAU Minor Planet Center

Minor Planet Center

MPEC 2007-V92 : 2007 VH184

The following Minor Planet Electronic Circular may be linked-to from your own Web pages, but must not otherwise be redistributed electronically.


Read MPEC 2007-V91 Read MPEC 2007-V93


M.P.E.C. 2007-V92                                Issued 2007 Nov. 13, 14:23 UT

     The Minor Planet Electronic Circulars contain information on unusual
         minor planets and routine data on comets.  They are published
   on behalf of Commission 20 of the International Astronomical Union by the
          Minor Planet Center, Smithsonian Astrophysical Observatory,
                          Cambridge, MA 02138, U.S.A.

             Prepared using the Tamkin Foundation Computer Network

                              MPC@CFA.HARVARD.EDU
          URL http://www.cfa.harvard.edu/iau/mpc.html  ISSN 1523-6714

                                  2007 VH184

Observations:
     K07VI4H  C2007 11 11.61554 01 33 25.56 -36 48 51.1          18.9 V EV092E12
     K07VI4H  C2007 11 11.62918 01 33 35.35 -36 47 37.1          19.2 V EV092E12
     K07VI4H  C2007 11 11.64280 01 33 45.14 -36 46 22.0          18.8 V EV092E12
     K07VI4H  C2007 11 11.65640 01 33 54.86 -36 45 07.9          19.0 V EV092E12
     K07VI4H* C2007 11 11.66980 01 34 04.54 -36 43 52.7          18.8 V EV092E12
     K07VI4H  C2007 11 11.67034 01 34 04.98 -36 43 50.1          19.5 V EV092E12
     K07VI4H  C2007 11 11.67087 01 34 05.37 -36 43 49.3          19.1 V EV092E12
     K07VI4H  C2007 11 11.67139 01 34 05.73 -36 43 45.2          19.4 V EV092E12
     K07VI4H  C2007 11 11.67531 01 34 08.50 -36 43 23.4          19.5 V EV092E12
     K07VI4H  C2007 11 11.67675 01 34 09.58 -36 43 14.0          19.1 V EV092E12
     K07VI4H  C2007 11 11.67817 01 34 10.59 -36 43 07.2          18.9 V EV092E12
     K07VI4H  C2007 11 11.67961 01 34 11.64 -36 42 59.0          18.9 V EV092E12
     K07VI4H  C2007 11 11.68104 01 34 12.75 -36 42 51.0          19.4 V EV092E12
     K07VI4H  C2007 11 11.68751 01 34 17.40 -36 42 16.6          18.6 V EV092E12
     K07VI4H  C2007 11 11.69947 01 34 26.07 -36 41 09.2          19.3 V EV092E12
     K07VI4H  C2007 11 11.73215 01 34 49.87 -36 38 07.8          18.8 V EV092E12
     K07VI4H  C2007 11 12.56082 01 44 56.58 -35 23 39.5          19.0 V EV092E12
     K07VI4H  C2007 11 12.56233 01 44 57.66 -35 23 31.2          18.8 V EV092E12
     K07VI4H  C2007 11 12.56380 01 44 58.56 -35 23 22.4          18.9 V EV092E12
     K07VI4H  C2007 11 12.56527 01 44 59.56 -35 23 14.3          18.9 V EV092E12
     K07VI4H  C2007 11 13.55181 01 56 26.55 -33 50 05.4          18.8 V EV092E12
     K07VI4H  C2007 11 13.55861 01 56 30.91 -33 49 25.1          18.7 V EV092E12
     K07VI4H  C2007 11 13.56201 01 56 33.10 -33 49 05.3          18.9 V EV092E12

Observer details:
E12 Siding Spring Survey.  Observer G. J. Garradd.  Measurers E. C. Beshore,
    A. Boattini, G. J. Garradd, A. R. Gibbs, A. D. Grauer, R. E. Hill,
    R. A. Kowalski, S. M. Larson, R. H. McNaught.  0.5-m Uppsala Schmidt + CCD.

Orbital elements:
2007 VH184                                               Earth MOID = 0.0662 AU
Epoch 2007 Oct. 27.0 TT = JDT 2454400.5                 MPC
M   0.21440              (2000.0)            P               Q
n   0.24298927     Peri.  246.76129     +0.89520732     -0.44349371
a   2.5433804      Node   139.52843     +0.42955795     +0.83254337
e   0.5965296      Incl.    3.86805     +0.11867527     +0.33194105
P   4.06           H   21.9           G   0.15           U   8
Residuals in seconds of arc
071111 E12  0.2-  0.2-    071111 E12  0.5-  0.2-    071112 E12  0.1-  0.1+
071111 E12  0.1+  0.5-    071111 E12  0.0   1.2+    071112 E12  0.6+  0.1-
071111 E12  0.4+  0.1+    071111 E12  0.2-  0.2+    071112 E12  0.6-  0.5+
071111 E12  0.4-  0.5-    071111 E12  0.1-  0.4+    071112 E12  0.5-  0.3+
071111 E12  0.2-  0.9+    071111 E12  0.8+  0.5+    071113 E12  0.2+  0.6-
071111 E12  0.4+  0.5+    071111 E12  0.3+  0.9-    071113 E12  0.0   0.1+
071111 E12  0.5+  1.6-    071111 E12  0.0   0.2+    071113 E12  0.1+  0.0
071111 E12  0.3+  0.4-    071111 E12  0.9-  0.1-

Ephemeris:
2007 VH184               a,e,i = 2.54, 0.60, 4                   q = 1.0262
Date    TT    R. A. (2000) Decl.     Delta      r     Elong.  Phase     V
2007 11 06    00 17.24   -43 16.3    0.106    1.036   112.2    62.3    19.3
2007 11 16    02 22.34   -29 46.8    0.109    1.062   129.5    45.9    19.0
2007 11 26    03 35.10   -13 46.0    0.137    1.102   144.7    31.2    19.1
2007 12 06    04 13.46   -02 17.7    0.184    1.153   153.9    22.1    19.6
2007 12 16    04 35.80   +05 14.4    0.246    1.215   157.5    18.1    20.2
2007 12 26    04 51.25   +10 19.9    0.321    1.283   155.9    18.2    20.9
2008 01 05    05 03.95   +13 54.4    0.409    1.356   151.1    20.5    21.6

Timothy B. Spahr             (C) Copyright 2007 MPC           M.P.E.C. 2007-V92

Read MPEC 2007-V91 Read MPEC 2007-V93


Our Web policy. Index to the CBAT/MPC/ICQ pages.


Valid HTML 4.01!